Time,TemperatureF,DewpointF,PressureIn,WindDirection,WindDirectionDegrees,WindSpeedMPH,WindSpeedGustMPH,Humidity,HourlyPrecipIn,Conditions,Clouds,dailyrainin,SoftwareType,DateUTC
2013-05-25 00:02:00,49.0,40.0,-100.00,South,190,0.0,1.0,70,-99.99,,,-99.99,,2013-05-25 05:02:00,
2013-05-25 00:12:00,49.0,40.0,-100.00,South,190,0.0,1.0,70,-99.99,,,-99.99,,2013-05-25 05:12:00,
2013-05-25 00:22:00,49.0,40.0,-100.00,South,190,0.0,1.0,70,-99.99,,,-99.99,,2013-05-25 05:22:00,
2013-05-25 00:52:00,46.0,39.0,-100.00,SSE,150,0.0,1.0,78,-99.99,,,-99.99,,2013-05-25 05:52:00,
2013-05-25 01:02:00,46.0,39.0,-100.00,SSE,150,0.0,1.0,78,-99.99,,,-99.99,,2013-05-25 06:02:00,
2013-05-25 01:12:00,46.0,39.0,-100.00,SSE,150,0.0,1.0,78,-99.99,,,-99.99,,2013-05-25 06:12:00,
2013-05-25 01:21:00,46.0,39.0,-100.00,SSE,150,0.0,1.0,78,-99.99,,,-99.99,,2013-05-25 06:21:00,
2013-05-25 01:52:00,42.0,39.0,-100.00,South,190,0.0,0.0,87,-99.99,,,-99.99,,2013-05-25 06:52:00,
2013-05-25 02:01:00,42.0,39.0,-100.00,South,190,0.0,0.0,87,-99.99,,,-99.99,,2013-05-25 07:01:00,
2013-05-25 02:11:00,42.0,39.0,-100.00,South,190,0.0,0.0,87,-99.99,,,-99.99,,2013-05-25 07:11:00,
2013-05-25 02:21:00,42.0,39.0,-100.00,South,190,0.0,0.0,87,-99.99,,,-99.99,,2013-05-25 07:21:00,
2013-05-25 02:52:00,41.0,39.0,-100.00,SSE,155,1.0,2.0,93,-99.99,,,-99.99,,2013-05-25 07:52:00,
2013-05-25 03:02:00,41.0,39.0,-100.00,SSE,155,1.0,2.0,93,-99.99,,,-99.99,,2013-05-25 08:02:00,
2013-05-25 03:11:00,41.0,39.0,-100.00,SSE,155,1.0,2.0,93,-99.99,,,-99.99,,2013-05-25 08:11:00,
2013-05-25 03:22:00,41.0,39.0,-100.00,SSE,155,1.0,2.0,93,-99.99,,,-99.99,,2013-05-25 08:22:00,
2013-05-25 03:52:00,42.0,41.0,-100.00,SE,140,2.0,4.0,95,-99.99,,,-99.99,,2013-05-25 08:52:00,
2013-05-25 04:02:00,42.0,41.0,-100.00,SE,140,2.0,4.0,95,-99.99,,,-99.99,,2013-05-25 09:02:00,
2013-05-25 04:11:00,42.0,41.0,-100.00,SE,140,2.0,4.0,95,-99.99,,,-99.99,,2013-05-25 09:11:00,
2013-05-25 04:21:00,42.0,41.0,-100.00,SE,140,2.0,4.0,95,-99.99,,,-99.99,,2013-05-25 09:21:00,
2013-05-25 04:53:00,45.0,39.0,-100.00,SSE,165,4.0,7.0,80,-99.99,,,-99.99,,2013-05-25 09:53:00,
2013-05-25 05:03:00,45.0,39.0,-100.00,SSE,165,4.0,7.0,80,-99.99,,,-99.99,,2013-05-25 10:03:00,
2013-05-25 05:12:00,45.0,39.0,-100.00,SSE,165,4.0,7.0,80,-99.99,,,-99.99,,2013-05-25 10:12:00,
2013-05-25 05:22:00,45.0,39.0,-100.00,SSE,165,4.0,7.0,80,-99.99,,,-99.99,,2013-05-25 10:22:00,
2013-05-25 05:52:00,44.0,37.0,-100.00,SSE,160,2.0,6.0,79,-99.99,,,-99.99,,2013-05-25 10:52:00,
2013-05-25 06:02:00,44.0,37.0,-100.00,SSE,160,2.0,6.0,79,-99.99,,,-99.99,,2013-05-25 11:02:00,
2013-05-25 06:12:00,44.0,37.0,-100.00,SSE,160,2.0,6.0,79,-99.99,,,-99.99,,2013-05-25 11:12:00,
2013-05-25 06:22:00,44.0,37.0,-100.00,SSE,160,2.0,6.0,79,-99.99,,,-99.99,,2013-05-25 11:22:00,
2013-05-25 06:52:00,47.0,41.0,-100.00,SSE,155,3.0,6.0,77,-99.99,,,-99.99,,2013-05-25 11:52:00,
2013-05-25 07:01:00,47.0,41.0,-100.00,SSE,155,3.0,6.0,77,-99.99,,,-99.99,,2013-05-25 12:01:00,
2013-05-25 07:12:00,47.0,41.0,-100.00,SSE,155,3.0,6.0,77,-99.99,,,-99.99,,2013-05-25 12:12:00,
2013-05-25 07:22:00,47.0,41.0,-100.00,SSE,155,3.0,6.0,77,-99.99,,,-99.99,,2013-05-25 12:22:00,
2013-05-25 07:52:00,51.0,39.0,-100.00,SSW,200,7.0,11.0,64,-99.99,,,-99.99,,2013-05-25 12:52:00,
2013-05-25 08:02:00,51.0,39.0,-100.00,SSW,200,7.0,11.0,64,-99.99,,,-99.99,,2013-05-25 13:02:00,
2013-05-25 08:11:00,51.0,39.0,-100.00,SSW,200,7.0,11.0,64,-99.99,,,-99.99,,2013-05-25 13:11:00,
2013-05-25 08:22:00,51.0,39.0,-100.00,SSW,200,7.0,11.0,64,-99.99,,,-99.99,,2013-05-25 13:22:00,
2013-05-25 09:52:00,58.0,36.0,-100.00,SE,145,4.0,11.0,44,-99.99,,,-99.99,,2013-05-25 14:52:00,
2013-05-25 10:01:00,58.0,36.0,-100.00,SE,145,4.0,11.0,44,-99.99,,,-99.99,,2013-05-25 15:01:00,
2013-05-25 10:11:00,58.0,36.0,-100.00,SE,145,4.0,11.0,44,-99.99,,,-99.99,,2013-05-25 15:11:00,
2013-05-25 10:22:00,58.0,36.0,-100.00,SE,145,4.0,11.0,44,-99.99,,,-99.99,,2013-05-25 15:22:00,
2013-05-25 10:53:00,60.0,35.0,-100.00,SSE,150,7.0,12.0,39,-99.99,,,-99.99,,2013-05-25 15:53:00,
2013-05-25 11:03:00,60.0,35.0,-100.00,SSE,150,7.0,12.0,39,-99.99,,,-99.99,,2013-05-25 16:03:00,
2013-05-25 11:12:00,60.0,35.0,-100.00,SSE,150,7.0,12.0,39,-99.99,,,-99.99,,2013-05-25 16:12:00,
2013-05-25 11:23:00,60.0,35.0,-100.00,SSE,150,7.0,12.0,39,-99.99,,,-99.99,,2013-05-25 16:23:00,
2013-05-25 12:52:00,64.0,33.0,-100.00,SSW,205,6.0,15.0,31,-99.99,,,-99.99,,2013-05-25 17:52:00,
2013-05-25 13:01:00,64.0,33.0,-100.00,SSW,205,6.0,15.0,31,-99.99,,,-99.99,,2013-05-25 18:01:00,
2013-05-25 13:11:00,64.0,33.0,-100.00,SSW,205,6.0,15.0,31,-99.99,,,-99.99,,2013-05-25 18:11:00,
2013-05-25 13:21:00,64.0,33.0,-100.00,SSW,205,6.0,15.0,31,-99.99,,,-99.99,,2013-05-25 18:21:00,
2013-05-25 13:52:00,65.0,32.0,-100.00,SSE,160,5.0,14.0,29,-99.99,,,-99.99,,2013-05-25 18:52:00,
2013-05-25 14:01:00,65.0,32.0,-100.00,SSE,160,5.0,14.0,29,-99.99,,,-99.99,,2013-05-25 19:01:00,
2013-05-25 14:11:00,65.0,32.0,-100.00,SSE,160,5.0,14.0,29,-99.99,,,-99.99,,2013-05-25 19:11:00,
2013-05-25 14:22:00,65.0,32.0,-100.00,SSE,160,5.0,14.0,29,-99.99,,,-99.99,,2013-05-25 19:22:00,
2013-05-25 16:53:00,68.0,32.0,-100.00,SSW,200,4.0,9.0,26,-99.99,,,-99.99,,2013-05-25 21:53:00,
2013-05-25 17:03:00,68.0,32.0,-100.00,SSW,200,4.0,9.0,26,-99.99,,,-99.99,,2013-05-25 22:03:00,
2013-05-25 17:13:00,68.0,32.0,-100.00,SSW,200,4.0,9.0,26,-99.99,,,-99.99,,2013-05-25 22:13:00,
2013-05-25 17:22:00,68.0,32.0,-100.00,SSW,200,4.0,9.0,26,-99.99,,,-99.99,,2013-05-25 22:22:00,
2013-05-25 17:52:00,67.0,30.0,-100.00,SW,225,3.0,7.0,25,-99.99,,,-99.99,,2013-05-25 22:52:00,
2013-05-25 18:02:00,67.0,30.0,-100.00,SW,225,3.0,7.0,25,-99.99,,,-99.99,,2013-05-25 23:02:00,
2013-05-25 18:12:00,67.0,30.0,-100.00,SW,225,3.0,7.0,25,-99.99,,,-99.99,,2013-05-25 23:12:00,
2013-05-25 18:22:00,67.0,30.0,-100.00,SW,225,3.0,7.0,25,-99.99,,,-99.99,,2013-05-25 23:22:00,
2013-05-25 18:52:00,67.0,31.0,-100.00,West,265,2.0,7.0,26,-99.99,,,-99.99,,2013-05-25 23:52:00,
2013-05-25 19:02:00,67.0,31.0,-100.00,West,265,2.0,7.0,26,-99.99,,,-99.99,,2013-05-26 00:02:00,
2013-05-25 19:11:00,67.0,31.0,-100.00,West,265,2.0,7.0,26,-99.99,,,-99.99,,2013-05-26 00:11:00,
2013-05-25 19:22:00,67.0,31.0,-100.00,West,265,2.0,7.0,26,-99.99,,,-99.99,,2013-05-26 00:22:00,
2013-05-25 19:53:00,65.0,31.0,-100.00,South,190,2.0,9.0,27,-99.99,,,-99.99,,2013-05-26 00:53:00,
2013-05-25 20:01:00,65.0,31.0,-100.00,South,190,2.0,9.0,27,-99.99,,,-99.99,,2013-05-26 01:01:00,
2013-05-25 20:11:00,65.0,31.0,-100.00,South,190,2.0,9.0,27,-99.99,,,-99.99,,2013-05-26 01:11:00,
2013-05-25 20:21:00,65.0,31.0,-100.00,South,190,2.0,9.0,27,-99.99,,,-99.99,,2013-05-26 01:21:00,
2013-05-25 20:53:00,59.0,33.0,-100.00,South,175,1.0,2.0,37,-99.99,,,-99.99,,2013-05-26 01:53:00,
2013-05-25 21:02:00,59.0,33.0,-100.00,South,175,1.0,2.0,37,-99.99,,,-99.99,,2013-05-26 02:02:00,
2013-05-25 21:11:00,59.0,33.0,-100.00,South,175,1.0,2.0,37,-99.99,,,-99.99,,2013-05-26 02:11:00,
2013-05-25 21:21:00,59.0,33.0,-100.00,South,175,1.0,2.0,37,-99.99,,,-99.99,,2013-05-26 02:21:00,
2013-05-25 21:52:00,53.0,37.0,-100.00,South,175,0.0,2.0,54,-99.99,,,-99.99,,2013-05-26 02:52:00,
2013-05-25 22:01:00,53.0,37.0,-100.00,South,175,0.0,2.0,54,-99.99,,,-99.99,,2013-05-26 03:01:00,
2013-05-25 22:11:00,53.0,37.0,-100.00,South,175,0.0,2.0,54,-99.99,,,-99.99,,2013-05-26 03:11:00,
2013-05-25 22:21:00,53.0,37.0,-100.00,South,175,0.0,2.0,54,-99.99,,,-99.99,,2013-05-26 03:21:00,
2013-05-25 22:53:00,49.0,39.0,-100.00,SSE,160,0.0,1.0,70,-99.99,,,-99.99,,2013-05-26 03:53:00,
2013-05-25 23:02:00,49.0,39.0,-100.00,SSE,160,0.0,1.0,70,-99.99,,,-99.99,,2013-05-26 04:02:00,
2013-05-25 23:12:00,49.0,39.0,-100.00,SSE,160,0.0,1.0,70,-99.99,,,-99.99,,2013-05-26 04:12:00,
2013-05-25 23:23:00,49.0,39.0,-100.00,SSE,160,0.0,1.0,70,-99.99,,,-99.99,,2013-05-26 04:23:00,
2013-05-25 23:52:00,52.0,39.0,-100.00,SSE,160,2.0,7.0,62,-99.99,,,-99.99,,2013-05-26 04:52:00,